�������l�o���
Date,Time,MP-1(��Sv/h),MP-2(��Sv/h),MP-3(��Sv/h),MP-4(��Sv/h),MP-5(��Sv/h),MP-6(��Sv/h),MP-7(��Sv/h),MP-8(��Sv/h),����,����(m/s),���J
2019/09/27,00:00,0.732,1.041,0.718,1.281,0.939,0.420,0.728,0.689,��,7.3,��
2019/09/27,00:10,0.734,1.042,0.716,1.281,0.940,0.418,0.731,0.689,��,7.6,��
2019/09/27,00:20,0.733,1.043,0.715,1.280,0.938,0.420,0.729,0.691,��,7.7,��
2019/09/27,00:30,0.734,1.039,0.717,1.282,0.939,0.420,0.729,0.691,��,8.1,��
2019/09/27,00:40,0.732,1.042,0.716,1.282,0.939,0.419,0.731,0.691,��,7.6,��
2019/09/27,00:50,0.733,1.043,0.718,1.283,0.938,0.420,0.728,0.689,��쐼,7.4,��
2019/09/27,01:00,0.731,1.041,0.717,1.280,0.939,0.420,0.731,0.690,��,6.2,��
2019/09/27,01:10,0.732,1.042,0.718,1.282,0.939,0.419,0.731,0.691,��쐼,4.5,��
2019/09/27,01:20,0.734,1.039,0.719,1.284,0.939,0.420,0.730,0.690,��쐼,3.1,��
2019/09/27,01:30,0.733,1.042,0.716,1.283,0.937,0.419,0.730,0.691,�쐼,2.3,��
2019/09/27,01:40,0.734,1.040,0.716,1.281,0.938,0.421,0.729,0.690,�쐼,1.5,��
2019/09/27,01:50,0.732,1.042,0.717,1.281,0.939,0.421,0.730,0.690,�쐼,1.2,��
2019/09/27,02:00,0.732,1.039,0.716,1.281,0.937,0.420,0.730,0.689,���쐼,0.6,��
2019/09/27,02:10,0.733,1.039,0.716,1.283,0.939,0.419,0.730,0.690,���쐼,0.8,��
2019/09/27,02:20,0.734,1.041,0.718,1.282,0.937,0.420,0.729,0.689,-,CALM,��
2019/09/27,02:30,0.732,1.044,0.717,1.282,0.938,0.419,0.728,0.690,�k�k��,0.6,��
2019/09/27,02:40,0.732,1.040,0.718,1.282,0.938,0.419,0.729,0.691,-,CALM,��
2019/09/27,02:50,0.733,1.041,0.716,1.282,0.938,0.420,0.730,0.692,-,CALM,��
2019/09/27,03:00,0.732,1.040,0.716,1.281,0.935,0.419,0.728,0.690,-,CALM,��
2019/09/27,03:10,0.732,1.040,0.717,1.282,0.939,0.420,0.730,0.690,�k,2.0,��
2019/09/27,03:20,0.733,1.040,0.716,1.281,0.937,0.419,0.732,0.689,�k�k��,2.0,��
2019/09/27,03:30,0.732,1.041,0.719,1.282,0.938,0.418,0.730,0.689,�k�k��,1.9,��
2019/09/27,03:40,0.733,1.040,0.718,1.282,0.938,0.419,0.728,0.691,�k,1.9,��
2019/09/27,03:50,0.734,1.040,0.716,1.283,0.938,0.418,0.729,0.689,�k��,1.2,��
2019/09/27,04:00,0.731,1.041,0.717,1.282,0.938,0.419,0.729,0.689,�k��,1.5,��
2019/09/27,04:10,0.731,1.043,0.717,1.282,0.938,0.418,0.729,0.691,���k��,1.7,��
2019/09/27,04:20,0.732,1.042,0.717,1.283,0.939,0.420,0.730,0.691,��,1.9,��
2019/09/27,04:30,0.731,1.040,0.717,1.283,0.938,0.419,0.727,0.691,��,2.3,��
2019/09/27,04:40,0.732,1.043,0.716,1.281,0.939,0.419,0.730,0.690,��,3.2,��
2019/09/27,04:50,0.732,1.039,0.716,1.282,0.939,0.419,0.730,0.689,��,2.8,��
2019/09/27,05:00,0.735,1.040,0.716,1.281,0.937,0.418,0.729,0.690,��,1.9,��
2019/09/27,05:10,0.733,1.040,0.718,1.280,0.936,0.420,0.728,0.689,��,2.6,��
2019/09/27,05:20,0.730,1.039,0.716,1.281,0.939,0.421,0.729,0.689,���k��,2.2,��
2019/09/27,05:30,0.733,1.040,0.717,1.282,0.937,0.419,0.728,0.690,���k��,3.1,��
2019/09/27,05:40,0.730,1.041,0.717,1.280,0.936,0.419,0.728,0.688,��,2.0,��
2019/09/27,05:50,0.731,1.038,0.717,1.281,0.937,0.418,0.728,0.690,���k��,2.3,��
2019/09/27,06:00,0.733,1.037,0.718,1.283,0.938,0.419,0.729,0.689,��,2.2,��
2019/09/27,06:10,0.732,1.041,0.715,1.282,0.937,0.417,0.730,0.689,�k��,1.7,��
2019/09/27,06:20,0.732,1.042,0.718,1.280,0.935,0.419,0.730,0.689,���k��,3.0,��
2019/09/27,06:30,0.732,1.041,0.715,1.281,0.937,0.417,0.729,0.690,�k��,3.1,��
2019/09/27,06:40,0.734,1.042,0.717,1.284,0.936,0.417,0.729,0.689,�k��,3.0,��
2019/09/27,06:50,0.733,1.039,0.717,1.283,0.938,0.417,0.730,0.690,�k��,3.0,��
2019/09/27,07:00,0.732,1.039,0.716,1.284,0.937,0.419,0.731,0.691,�k��,3.5,��
2019/09/27,07:10,0.733,1.043,0.717,1.282,0.937,0.418,0.731,0.690,�k��,4.0,��
2019/09/27,07:20,0.732,1.039,0.718,1.284,0.936,0.416,0.729,0.691,�k��,4.1,��
2019/09/27,07:30,0.734,1.040,0.719,1.284,0.934,0.417,0.730,0.689,�k�k��,3.9,��
2019/09/27,07:40,0.735,1.037,0.716,1.279,0.937,0.417,0.732,0.690,�k�k��,2.8,��
2019/09/27,07:50,0.732,1.040,0.715,1.282,0.938,0.419,0.732,0.692,�k,3.0,��
2019/09/27,08:00,0.735,1.039,0.714,1.282,0.938,0.418,0.731,0.692,�k,2.6,��
2019/09/27,08:10,0.733,1.035,0.718,1.281,0.936,0.418,0.730,0.692,�k,2.3,��
2019/09/27,08:20,0.734,1.034,0.717,1.283,0.937,0.417,0.729,0.692,�k,2.8,��
2019/09/27,08:30,0.734,1.036,0.716,1.285,0.938,0.417,0.729,0.693,�k�k��,2.6,��
2019/09/27,08:40,0.736,1.033,0.716,1.284,0.936,0.417,0.729,0.690,�k�k��,2.6,��
2019/09/27,08:50,0.733,1.034,0.718,1.284,0.936,0.416,0.728,0.690,�k,2.8,��
2019/09/27,09:00,0.734,1.037,0.718,1.284,0.937,0.417,0.729,0.689,�k�k��,3.0,��
2019/09/27,09:10,0.734,1.039,0.715,1.285,0.936,0.417,0.730,0.688,�k�k��,3.4,��
2019/09/27,09:20,0.733,1.036,0.715,1.284,0.937,0.416,0.729,0.688,�k�k��,3.3,��
2019/09/27,09:30,0.733,1.037,0.715,1.284,0.936,0.417,0.731,0.688,���k��,3.0,��
2019/09/27,09:40,0.734,1.037,0.716,1.284,0.936,0.417,0.730,0.689,�k��,3.0,��
2019/09/27,09:50,0.734,1.035,0.715,1.285,0.937,0.417,0.729,0.690,�k��,3.4,��
2019/09/27,10:00,0.735,1.035,0.714,1.282,0.938,0.418,0.730,0.690,�k��,3.0,��
2019/09/27,10:10,0.735,1.036,0.715,1.283,0.936,0.418,0.729,0.689,���k��,3.0,��
2019/09/27,10:20,0.735,1.036,0.717,1.285,0.936,0.416,0.730,0.689,�k��,3.2,��
2019/09/27,10:30,0.735,1.036,0.717,1.286,0.938,0.417,0.730,0.690,�k��,3.1,��
2019/09/27,10:40,0.735,1.038,0.715,1.286,0.940,0.417,0.730,0.690,���k��,2.8,��
2019/09/27,10:50,0.735,1.040,0.717,1.286,0.942,0.417,0.731,0.690,���k��,2.6,��
2019/09/27,11:00,0.736,1.040,0.718,1.284,0.942,0.418,0.730,0.691,���k��,2.5,��
2019/09/27,11:10,0.736,1.042,0.716,1.285,0.941,0.418,0.730,0.692,���k��,2.9,��
2019/09/27,11:20,0.737,1.039,0.716,1.286,0.941,0.418,0.730,0.689,���k��,2.3,��
2019/09/27,11:30,0.737,1.039,0.718,1.283,0.940,0.418,0.729,0.691,��,2.3,��
2019/09/27,11:40,0.737,1.040,0.715,1.282,0.943,0.418,0.730,0.691,���k��,2.6,��
2019/09/27,11:50,0.737,1.041,0.718,1.287,0.943,0.420,0.730,0.690,���k��,1.7,��
2019/09/27,12:00,0.737,1.046,0.718,1.286,0.942,0.419,0.731,0.690,���k��,2.5,��
2019/09/27,12:10,0.738,1.049,0.718,1.286,0.941,0.417,0.730,0.690,��,2.3,��
2019/09/27,12:20,0.738,1.047,0.717,1.287,0.942,0.419,0.731,0.690,��,2.2,��
2019/09/27,12:30,0.739,1.046,0.718,1.286,0.943,0.419,0.730,0.691,���쓌,2.6,��
2019/09/27,12:40,0.736,1.048,0.720,1.284,0.944,0.418,0.731,0.690,���쓌,3.6,��
2019/09/27,12:50,0.738,1.049,0.720,1.288,0.945,0.419,0.731,0.691,���쓌,2.9,��
2019/09/27,13:00,0.738,1.049,0.721,1.287,0.945,0.418,0.731,0.692,�쓌,3.2,��
2019/09/27,13:10,0.738,1.046,0.720,1.287,0.945,0.418,0.730,0.691,��쓌,2.8,��
2019/09/27,13:20,0.738,1.044,0.719,1.287,0.944,0.416,0.731,0.691,��쓌,3.7,��
2019/09/27,13:30,0.738,1.042,0.720,1.287,0.944,0.419,0.732,0.691,��쓌,3.7,��
2019/09/27,13:40,0.739,1.044,0.719,1.287,0.944,0.419,0.731,0.690,��쓌,4.3,��
2019/09/27,13:50,0.738,1.044,0.720,1.287,0.944,0.420,0.731,0.691,��쓌,5.1,��
2019/09/27,14:00,0.739,1.044,0.717,1.286,0.944,0.419,0.730,0.691,��쓌,5.4,��
2019/09/27,14:10,0.738,1.049,0.721,1.284,0.945,0.420,0.732,0.690,��쓌,5.4,��
2019/09/27,14:20,0.739,1.046,0.719,1.288,0.944,0.419,0.730,0.691,��쓌,5.3,��
2019/09/27,14:30,0.737,1.046,0.720,1.285,0.944,0.420,0.730,0.691,��쓌,5.5,��
2019/09/27,14:40,0.738,1.047,0.721,1.290,0.948,0.420,0.731,0.690,��쓌,5.9,��
2019/09/27,14:50,0.738,1.047,0.719,1.286,0.946,0.419,0.731,0.690,��쓌,5.8,��
2019/09/27,15:00,0.740,1.049,0.720,1.287,0.945,0.420,0.732,0.690,��쓌,7.2,��
2019/09/27,15:10,0.738,1.049,0.719,1.287,0.944,0.420,0.734,0.691,��쓌,6.9,��
2019/09/27,15:20,0.737,1.051,0.721,1.288,0.946,0.419,0.731,0.691,��쓌,5.9,��
2019/09/27,15:30,0.736,1.049,0.720,1.287,0.947,0.420,0.731,0.690,��쓌,6.3,��
2019/09/27,15:40,0.739,1.050,0.720,1.287,0.946,0.420,0.730,0.690,��쓌,5.8,��
2019/09/27,15:50,0.739,1.051,0.720,1.286,0.946,0.420,0.730,0.691,��쓌,6.4,��
2019/09/27,16:00,0.737,1.051,0.721,1.286,0.947,0.419,0.731,0.690,��쓌,6.6,��
2019/09/27,16:10,0.735,1.055,0.719,1.286,0.947,0.420,0.732,0.691,��쓌,5.8,��
2019/09/27,16:20,0.738,1.056,0.719,1.288,0.945,0.419,0.730,0.692,��쓌,5.7,��
2019/09/27,16:30,0.739,1.053,0.720,1.286,0.944,0.420,0.732,0.690,��쓌,5.7,��
2019/09/27,16:40,0.738,1.054,0.719,1.289,0.947,0.422,0.731,0.690,��쓌,6.1,��
2019/09/27,16:50,0.738,1.052,0.721,1.284,0.944,0.422,0.731,0.690,��,6.2,��
2019/09/27,17:00,0.738,1.057,0.722,1.285,0.946,0.422,0.732,0.690,��,4.6,��
2019/09/27,17:10,0.739,1.058,0.720,1.287,0.945,0.422,0.731,0.691,��쓌,5.6,��
2019/09/27,17:20,0.739,1.057,0.721,1.286,0.943,0.423,0.731,0.693,��쓌,5.3,��
2019/09/27,17:30,0.739,1.057,0.719,1.289,0.945,0.423,0.729,0.693,��,5.4,��
2019/09/27,17:40,0.736,1.057,0.719,1.288,0.945,0.423,0.731,0.692,��,4.7,��
2019/09/27,17:50,0.737,1.056,0.720,1.287,0.947,0.423,0.733,0.693,��,4.8,��
2019/09/27,18:00,0.739,1.056,0.724,1.287,0.948,0.424,0.733,0.693,��,4.8,��
2019/09/27,18:10,0.737,1.055,0.726,1.287,0.949,0.423,0.733,0.693,��,4.7,��
2019/09/27,18:20,0.738,1.056,0.725,1.288,0.947,0.424,0.732,0.694,��,5.0,��
2019/09/27,18:30,0.741,1.057,0.724,1.290,0.948,0.423,0.731,0.692,��,5.1,��
2019/09/27,18:40,0.740,1.054,0.724,1.287,0.947,0.421,0.734,0.693,��,5.8,��
2019/09/27,18:50,0.742,1.055,0.724,1.287,0.947,0.422,0.732,0.692,��,5.3,��
2019/09/27,19:00,0.739,1.055,0.724,1.290,0.948,0.423,0.733,0.693,��,5.0,��
2019/09/27,19:10,0.739,1.053,0.724,1.286,0.946,0.422,0.732,0.693,��쐼,5.7,��
2019/09/27,19:20,0.739,1.049,0.723,1.289,0.947,0.422,0.732,0.693,��쐼,6.2,��
2019/09/27,19:30,0.740,1.055,0.723,1.288,0.949,0.423,0.732,0.692,��쐼,6.1,��
2019/09/27,19:40,0.741,1.053,0.722,1.289,0.949,0.423,0.732,0.692,��,6.4,��
2019/09/27,19:50,0.739,1.054,0.725,1.289,0.948,0.422,0.732,0.693,��,6.4,��
2019/09/27,20:00,0.740,1.054,0.724,1.287,0.946,0.423,0.733,0.692,��,6.2,��
2019/09/27,20:10,0.740,1.057,0.723,1.287,0.948,0.423,0.733,0.691,��,5.7,��
2019/09/27,20:20,0.738,1.055,0.723,1.288,0.950,0.423,0.731,0.692,��,5.1,��
2019/09/27,20:30,0.739,1.055,0.723,1.287,0.948,0.423,0.734,0.693,��쐼,4.0,��
2019/09/27,20:40,0.739,1.052,0.723,1.288,0.948,0.422,0.732,0.692,��,3.5,��
2019/09/27,20:50,0.742,1.054,0.723,1.288,0.948,0.423,0.732,0.693,��,3.7,��
2019/09/27,21:00,0.742,1.054,0.723,1.288,0.950,0.423,0.733,0.693,��,4.3,��
2019/09/27,21:10,0.740,1.052,0.723,1.288,0.949,0.423,0.733,0.693,��,5.3,��
2019/09/27,21:20,0.740,1.052,0.725,1.288,0.946,0.423,0.732,0.692,��,6.8,��
2019/09/27,21:30,0.741,1.052,0.723,1.289,0.948,0.422,0.733,0.692,��,6.7,��
2019/09/27,21:40,0.741,1.051,0.723,1.287,0.949,0.423,0.731,0.691,��,6.6,��
2019/09/27,21:50,0.740,1.049,0.724,1.287,0.947,0.422,0.733,0.694,��,6.8,��
2019/09/27,22:00,0.741,1.046,0.724,1.288,0.949,0.422,0.734,0.693,��,5.7,��
2019/09/27,22:10,0.740,1.050,0.724,1.285,0.949,0.422,0.733,0.694,��쐼,3.9,��
2019/09/27,22:20,0.740,1.028,0.724,1.290,0.949,0.423,0.733,0.692,��쐼,2.8,��
2019/09/27,22:30,0.740,1.018,0.725,1.288,0.949,0.423,0.732,0.692,��,2.3,��
2019/09/27,22:40,0.740,1.049,0.724,1.290,0.949,0.422,0.733,0.693,��쐼,2.6,��
2019/09/27,22:50,0.741,1.051,0.726,1.289,0.949,0.424,0.733,0.692,��,2.3,��
2019/09/27,23:00,0.740,1.052,0.722,1.290,0.949,0.422,0.732,0.693,��,2.3,��
2019/09/27,23:10,0.742,1.052,0.724,1.289,0.947,0.423,0.732,0.693,��,1.4,��
2019/09/27,23:20,0.742,1.052,0.722,1.290,0.948,0.423,0.732,0.693,��,1.2,��
2019/09/27,23:30,0.742,1.052,0.724,1.290,0.950,0.423,0.733,0.693,-,CALM,��
2019/09/27,23:40,0.741,1.051,0.724,1.291,0.949,0.423,0.733,0.692,��,1.4,��
2019/09/27,23:50,0.742,1.052,0.725,1.289,0.948,0.422,0.734,0.693,���k��,1.2,��
